Location: Geroldsau
(48.7259°N, 8.2466°E)
Time: 07:47:27
(UTC+00:00)

Cosmos 1825 - Pass Details

Date: 20 June 2021
Orbit: 500 x 507 km, 82.5° (Epoch: 26 July)

Event Time Altitude Azimuth Distance (km) Brightness Sun altitude
Exits shadow 01:47:35 - 256° (WSW) 1,782 4.5 -11.4°
Reaches altitude 10° 01:47:50 10° 259° (W) 1,723 4.4 -11.4°
Maximum altitude 01:49:58 15° 294° (WNW) 1,465 4.4 -11.2°
Drops below altitude 10° 01:52:07 10° 329° (NNW) 1,729 5.2 -11.0°
Sets 01:55:05 0° 354° (N) 2,619 6.6 -10.8°
